Dewpoint
49 49 49 50 50 52 53 52 51 50 50 53 55 56 56 55 55 52 49 50 50 52 53 53 54 57 57 52 49 46 43 40 39 37 35 35 30 34 33 32 32 33 43 49 53
49 49 49 49 49 50 49 50 51 52 51 50 52 53 56 55 52 48 48 49 52 52 53 52 53 55 52 50 48 44 42 41 41 40 35 35 32 33 32 31 34 47 49 51 51
45 45 46 46 46 48 49 49 49 49 50 51 49 49 53 55 46 43 53 52 55 52 52 52 54 53 49 48 45 43 41 42 41 38 37 35 33 34 32 31 31 47 49 50 49
44 47 47 48 48 48 47 47 47 47 47 48 51 48 51 52 32 48 48 49 51 52 49 48 52 49 46 45 45 42 42 43 42 40 37 35 36 33 32 33 36 48 49 49 47
45 46 47 48 46 46 47 46 46 46 48 48 49 51 48 46 43 44 46 53 53 52 49 47 49 49 44 42 43 43 42 42 42 42 38 37 35 35 33 33 38 48 48 47 46
46 46 46 46 46 45 45 45 45 45 46 46 47 49 47 36 43 44 43 51 52 52 51 49 50 49 46 42 40 42 42 41 41 40 38 37 36 36 35 33 40 47 47 46 44
45 46 46 45 45 44 44 44 44 44 45 45 46 46 44 40 41 44 45 44 52 52 52 53 52 47 46 43 41 41 40 41 40 39 37 37 35 35 36 33 42 45 45 44 43
45 45 45 45 44 44 44 43 43 43 43 44 45 44 38 41 43 42 37 42 48 52 52 53 52 47 44 42 39 35 36 36 38 39 39 38 35 37 37 35 37 43 43 42 42
44 43 42 44 44 44 44 44 43 43 43 43 42 41 34 40 41 39 42 42 43 51 52 52 49 44 42 40 36 35 32 34 35 38 38 37 35 37 38 36 32 36 41 41 40
42 42 42 43 43 43 44 44 43 41 39 39 40 37 37 32 35 37 39 43 42 47 47 47 45 41 41 38 30 31 30 32 33 34 37 36 36 34 35 36 33 31 35 39 39
43 43 42 43 43 43 43 42 33 31 36 34 34 36 37 37 35 37 38 38 40 40 40 44 38 35 37 39 35 31 29 29 30 32 32 36 36 36 35 33 34 32 31 36 38
42 42 43 43 43 43 43 39 36 39 32 35 34 33 32 32 28 28 42 38 37 34 39 38 34 37 37 37 37 34 32 29 28 29 31 34 35 36 36 35 32 33 32 34 37
41 42 43 43 43 42 39 38 42 38 31 30 31 30 31 30 28 27 40 39 34 33 33 33 32 36 34 34 35 35 32 29 28 24 22 28 29 31 32 36 34 30 34 33 35
41 43 44 44 38 39 37 39 41 39 24 22 29 29 28 29 27 29 33 39 37 31 30 34 34 34 32 31 33 30 32 30 29 25 28 23 23 22 27 27 33 33 31 33 34
43 43 43 43 41 38 37 40 41 37 10 14 25 35 33 26 26 27 38 40 35 33 33 30 31 33 31 31 32 30 31 29 29 23 22 21 15 17 19 18 24 32 30 31 33
44 44 44 42 40 39 40 40 37 20 7 14 23 21 25 32 24 34 37 39 36 35 32 31 34 32 32 32 31 32 32 33 31 28 24 24 21 22 21 20 19 27 30 29 31
44 44 43 42 36 41 41 35 18 13 14 18 19 19 19 30 25 24 27 31 28 27 28 30 31 29 30 30 31 33 32 26 25 24 21 23 23 23 22 20 18 22 30 28 29
45 44 42 37 39 40 36 21 11 12 20 21 20 21 20 23 30 24 25 29 32 30 29 24 23 30 31 27 28 32 31 26 18 19 20 20 18 20 23 22 16 21 27 28 26
44 37 33 39 41 40 29 15 14 19 21 22 23 19 24 26 29 28 25 24 30 31 27 26 22 30 30 26 28 30 28 25 18 20 16 17 16 17 18 18 16 15 22 30 25
40 36 37 41 42 36 24 18 20 22 21 23 22 26 21 22 25 27 23 27 27 31 31 31 24 27 28 28 26 29 30 22 20 14 12 15 14 13 14 15 14 13 19 27 29
39 30 36 38 39 30 19 19 23 24 22 25 24 23 22 24 26 27 24 29 30 30 32 33 27 25 26 24 23 24 28 27 23 20 17 13 13 13 14 14 13 14 16 24 25
34 24 33 37 26 25 22 23 25 22 24 24 27 25 24 24 25 27 27 27 31 30 27 33 29 23 24 21 19 19 26 26 22 20 19 18 16 11 12 12 15 15 15 18 27
29 27 32 34 21 22 24 24 24 22 23 23 22 23 24 23 23 26 27 32 30 30 27 29 27 20 22 24 19 17 19 26 22 22 17 13 14 12 14 16 16 15 17 23 29
30 23 26 30 30 26 24 23 23 26 27 25 24 22 23 24 26 23 25 31 31 33 33 28 28 20 15 17 18 16 17 19 21 18 17 17 15 12 13 16 17 18 20 25 29
30 25 26 21 25 24 25 27 24 24 28 26 24 23 25 24 23 25 29 30 32 35 34 32 22 22 21 21 18 17 16 17 16 19 17 16 17 17 15 15 17 18 20 25 27
27 28 29 27 25 23 27 23 25 25 28 26 26 28 27 26 29 27 29 30 28 33 32 32 26 24 20 23 22 18 18 18 18 18 20 18 16 16 15 16 17 18 20 22 26
34 34 33 25 27 26 26 23 22 26 28 30 29 29 25 31 32 34 34 33 33 31 30 30 25 22 18 22 21 20 22 21 20 19 18 17 20 20 16 16 17 18 20 21 23
Wind_Speed
19 20 21 20 19 18 17 16 16 16 17 18 18 17 15 14 16 14 18 16 11 23 9 9 10 14 14 5 6 3 6 14 11 11 10 10 3 4 1 13 6 3 13 18 27
19 19 18 18 18 19 19 18 18 18 16 17 18 18 18 14 15 17 24 19 23 15 12 13 17 15 8 9 9 13 14 11 6 14 7 10 8 10 7 12 8 14 19 31 25
21 20 20 20 20 19 19 19 19 20 20 17 17 17 17 13 9 7 5 11 24 22 20 12 13 12 9 7 11 7 12 18 7 7 1 5 3 1 19 9 10 24 27 29 22
18 18 19 19 19 19 21 20 21 20 21 19 18 16 16 6 9 8 12 10 8 16 16 18 13 14 10 15 14 7 16 16 10 3 3 3 6 6 8 5 19 32 34 29 25
19 20 21 19 20 21 21 22 21 21 21 20 18 16 9 11 18 22 25 4 10 15 22 25 22 20 15 18 15 27 18 20 25 13 6 5 4 1 10 8 22 25 29 28 23
19 21 19 20 20 20 21 22 23 22 21 20 20 17 8 28 7 17 20 11 15 20 22 25 12 20 12 14 28 12 28 26 20 10 9 6 4 2 3 9 27 29 27 26 26
23 21 21 21 21 23 23 23 24 24 23 23 21 17 19 27 15 17 19 8 19 21 20 24 27 18 12 16 25 21 16 25 25 11 7 7 12 11 9 13 25 27 25 24 25
23 22 23 23 23 23 25 25 26 28 27 27 25 19 24 3 24 35 30 25 15 19 23 16 6 8 5 3 5 8 20 22 16 18 8 13 11 18 18 10 22 24 23 24 25
22 23 24 24 24 25 26 27 30 34 32 27 21 17 19 8 26 34 26 21 14 13 10 13 2 6 9 13 12 9 17 23 9 19 12 19 6 20 17 15 22 25 25 24 24
22 23 24 25 26 26 26 28 31 36 16 14 16 10 14 13 6 15 27 20 16 12 11 16 10 12 13 20 30 22 21 9 20 13 22 20 17 7 6 21 24 25 25 25 25
23 24 25 25 26 26 22 9 8 8 7 7 12 18 27 11 19 17 16 24 19 11 18 14 12 32 29 23 12 18 10 19 16 17 19 33 21 24 21 7 19 25 26 25 27
22 24 24 26 26 26 14 4 8 4 11 20 27 28 29 15 16 21 10 25 26 32 20 11 24 25 23 16 18 15 11 12 11 16 23 22 27 19 27 18 18 21 23 28 26
23 23 23 25 28 9 9 9 3 4 7 16 12 12 12 18 17 22 10 8 30 27 27 28 11 17 24 21 21 21 19 9 7 6 4 8 10 18 14 23 22 21 24 24 31
22 22 22 24 8 11 10 14 3 3 6 9 4 4 2 7 11 18 12 2 8 33 31 20 13 25 21 23 22 27 16 13 8 7 6 7 9 19 28 29 28 29 25 24 28
22 22 22 18 9 5 13 14 4 2 6 4 2 5 5 12 6 7 16 9 14 13 20 20 24 22 28 34 23 15 12 18 12 13 6 7 4 7 12 15 30 27 28 29 28
23 22 20 7 8 8 10 11 3 1 6 8 6 17 12 7 19 5 6 8 5 11 20 9 1 19 23 18 21 13 8 5 5 11 11 14 12 9 13 14 15 29 32 31 24
21 20 18 11 7 7 8 4 3 2 11 11 17 18 18 5 10 19 6 6 5 8 17 18 7 2 16 21 13 13 15 9 13 12 16 9 17 16 10 14 18 31 30 29 25
17 21 9 2 8 5 3 5 1 5 6 15 11 25 5 7 4 12 13 11 14 12 8 22 18 9 10 15 16 24 19 8 13 12 7 6 11 9 30 29 9 21 28 30 26
15 7 5 8 7 2 2 3 3 8 15 13 19 7 8 12 7 1 12 12 7 17 4 10 6 10 9 7 17 12 14 11 2 0 6 7 5 11 11 15 11 15 24 26 28
8 5 4 9 5 4 4 4 4 11 15 9 6 8 8 14 12 4 5 8 8 11 8 2 6 9 7 7 3 20 14 11 3 9 5 7 5 11 6 17 12 14 22 27 26
4 6 5 11 3 5 1 5 10 12 18 5 6 7 8 7 7 4 1 5 6 7 11 7 3 3 4 7 16 9 14 3 5 3 5 3 5 2 6 7 17 14 9 17 25
3 5 7 9 4 2 4 7 17 14 12 6 6 8 7 14 8 6 5 5 6 4 12 9 5 6 5 10 0 3 12 9 11 6 2 2 4 5 6 7 8 13 11 6 18
3 4 5 4 6 6 8 12 6 13 11 6 7 6 7 8 7 8 7 7 5 3 3 12 8 6 3 7 5 6 4 12 7 4 15 8 3 5 9 6 6 11 4 5 20
3 6 5 5 1 6 10 5 12 11 11 10 10 10 10 8 4 8 6 5 6 7 3 12 6 8 10 7 7 8 9 6 11 7 4 13 8 2 2 7 10 8 8 11 18
5 2 1 6 6 14 10 5 12 11 6 9 4 8 10 5 10 6 6 3 4 6 5 3 6 7 5 11 9 11 13 15 19 11 15 15 17 4 4 6 7 10 8 14 19
4 4 5 6 7 9 4 4 9 13 5 9 8 17 9 7 4 8 7 4 0 3 2 1 4 4 3 5 6 8 11 15 13 15 16 12 28 4 3 6 8 9 13 12 15
2 3 3 6 6 7 6 9 16 16 5 6 12 13 8 6 14 13 4 15 4 4 3 1 3 6 5 4 4 8 20 18 13 18 18 26 26 3 5 12 16 16 15 18 15
Wind_Direction
340 338 329 330 338 338 329 319 327 332 320 322 327 318 304 306 310 285 259 230 213 233 240 184 212 243 230 219 197 203 234 222 214 226 244 289 176 49 86 116 58 104 148 155 144
344 338 335 332 328 327 326 333 335 325 323 320 315 319 319 308 302 271 248 241 232 238 206 195 202 221 193 187 193 207 217 217 218 230 277 290 173 138 119 110 71 82 110 142 141
332 328 327 325 326 329 328 327 325 320 321 315 316 308 326 313 319 249 24 234 239 206 197 207 226 212 215 179 201 212 223 224 256 234 228 309 132 166 138 166 164 140 140 150 157
326 328 326 329 328 329 326 322 320 316 314 309 310 308 311 296 260 183 16 334 172 166 180 210 227 206 203 206 204 243 226 245 251 17 314 215 334 154 151 147 161 153 155 156 163
328 333 330 330 330 328 324 322 317 314 311 309 302 302 310 244 239 266 300 246 172 172 195 204 211 206 194 209 213 221 249 222 251 261 222 294 286 325 195 132 148 147 156 163 163
329 331 330 328 326 323 320 316 312 309 308 300 296 290 258 254 270 253 263 214 186 197 210 199 212 208 215 227 211 197 222 246 255 254 205 213 249 5 189 137 149 155 165 167 169
329 330 325 324 321 318 315 313 310 303 296 291 288 280 260 245 288 290 304 279 204 200 217 220 218 187 211 218 233 238 235 225 242 219 203 181 249 219 235 141 155 166 168 171 176
331 331 329 324 319 315 311 309 306 297 287 281 280 273 259 264 243 261 268 278 257 215 222 241 221 230 221 277 251 215 219 229 222 216 202 170 251 229 235 189 174 172 172 176 181
330 330 331 325 320 316 312 309 301 292 281 275 273 256 269 257 230 234 231 234 253 213 236 235 136 207 182 203 207 227 227 218 197 205 195 195 223 233 238 215 189 180 177 180 185
332 331 330 324 322 320 317 312 299 288 286 254 235 260 250 260 274 278 233 231 221 202 228 216 191 192 192 195 209 201 216 201 218 214 212 211 211 211 243 215 200 190 184 181 185
329 330 331 327 325 321 324 331 348 332 10 277 266 269 300 269 305 298 227 223 217 215 212 181 188 209 203 191 194 198 188 226 243 234 220 220 216 214 240 236 207 198 192 186 186
328 329 330 329 326 319 318 283 285 310 294 274 255 258 247 244 278 275 328 202 204 207 205 182 220 205 196 182 186 224 228 231 267 274 216 216 216 210 226 243 223 211 202 190 183
329 329 330 332 323 332 311 311 317 338 284 287 242 247 243 209 240 245 215 283 200 200 204 208 222 175 186 193 195 217 223 223 240 357 18 132 234 232 229 226 225 216 212 192 183
327 327 329 338 344 330 307 337 273 88 299 284 255 266 188 227 246 245 202 291 223 204 204 224 196 174 187 195 190 211 206 221 222 173 223 196 250 231 230 229 218 219 208 195 187
324 324 327 332 284 300 305 322 360 20 316 300 344 325 319 192 243 221 158 190 241 190 192 203 189 199 191 197 185 207 171 212 221 195 210 216 250 252 233 234 224 212 208 206 186
328 319 326 335 303 269 325 328 8 333 262 317 10 343 338 274 244 107 138 101 305 216 198 168 325 195 200 197 200 159 125 36 2 181 231 210 204 247 240 237 233 210 205 202 187
325 318 320 295 317 346 339 6 2 220 319 350 334 327 319 351 244 240 211 159 230 203 177 196 217 295 182 195 197 173 152 177 198 210 228 190 216 234 236 259 232 200 198 195 181
324 316 301 339 358 6 29 36 357 301 356 309 321 312 294 300 263 227 213 211 195 281 138 179 208 192 185 197 185 170 170 173 205 196 169 203 222 238 229 247 247 198 196 188 175
332 326 338 3 355 6 29 0 254 341 333 328 326 336 9 353 313 7 235 224 199 198 102 155 209 159 241 191 159 170 195 162 134 97 141 203 263 289 248 237 220 186 188 184 180
339 321 22 344 360 44 55 278 280 316 328 325 310 350 328 349 349 344 162 198 217 202 208 100 148 183 183 188 128 186 171 179 126 193 191 213 224 217 314 232 198 195 185 182 176
357 337 332 339 51 49 313 262 302 300 323 340 305 302 302 340 307 293 52 84 197 219 182 121 62 155 153 192 185 140 176 78 139 155 175 167 229 299 292 326 208 199 183 169 164
0 329 323 348 30 32 302 297 303 302 328 279 252 276 305 338 331 328 352 26 32 48 213 160 93 141 189 341 24 135 172 143 169 191 169 139 293 331 333 311 233 191 190 140 155
14 308 331 22 23 341 313 311 282 322 334 320 300 315 324 315 321 323 334 348 39 15 199 161 142 118 88 313 4 198 159 180 114 114 200 196 222 359 35 49 137 160 157 145 143
3 346 330 35 128 339 329 316 332 316 315 342 305 302 343 318 297 300 309 326 1 14 329 136 151 163 180 187 159 188 199 158 200 203 176 219 237 314 56 120 121 124 111 128 139
23 33 268 320 331 320 317 283 322 340 310 309 314 2 354 309 314 351 332 247 25 33 47 87 177 161 127 152 151 202 199 188 210 212 216 237 254 316 234 210 173 145 121 130 139
10 349 340 283 276 301 329 310 328 332 300 320 346 329 325 327 302 313 356 330 289 22 94 68 146 127 197 170 155 197 214 215 210 213 227 233 256 207 153 156 166 171 152 144 152
351 345 308 291 313 331 333 331 325 336 272 273 319 315 318 340 316 295 194 276 270 143 112 210 105 129 175 216 181 231 220 210 205 214 210 225 233 122 160 187 188 180 178 169 162